#timestamp,LO_Frequency 
1443718815.7,286046999.1
1443718835.7,286046998.5
1443718855.6,286047000.3
1443718875.5,286047000.8
1443718895.4,286046998.6
1443718915.4,286046999.9
1443718935.3,286047002.7
1443718955.2,286046998.4
1443718975.1,286046999.0
1443718995.1,286046998.2
1443718996.0,286046998.2
1443719015.0,286047003.6
1443719015.9,286047003.6
1443719035.8,286046997.8
1443719055.8,286047001.2
1443719075.7,286046998.2
1443719095.6,286046999.8
1443719115.5,286047002.8
1443719135.5,286046999.2
1443719155.4,286046998.2
1443719175.3,286047000.4
1443719195.2,286047002.4
1443719215.2,286046999.3
1443719235.1,286047000.9
1443719255.0,286046996.7
1443719255.9,286046996.7
1443719275.9,286047005.2
1443719295.8,286046998.2
1443719315.7,286047012.8
1443719335.6,286047021.1
1443719355.6,286047009.5
1443719375.5,286047011.5
1443719395.4,286047016.6
1443719415.3,286047018.2
1443719435.3,286047013.3
1443719455.2,286047014.0
1443719475.1,286047015.5
1443719495.0,286047006.6
1443719496.0,286047006.6
1443719515.9,286047010.6
1443719535.8,286047016.6
1443719555.7,286047009.4
1443719575.6,286047016.4
1443719595.6,286047015.5
1443719615.5,286047000.2
1443719635.4,286047001.6
1443719655.3,286046991.9
1443719675.3,286046994.8
1443719695.2,286046991.4
1443719715.1,286046993.1
1443719735.0,286046991.7
1443719736.0,286046991.7
1443719755.9,286047003.0
1443719775.8,286046997.8
1443719795.7,286046994.7
1443719815.7,286046996.0
1443719835.6,286046993.8
1443719855.5,286046995.7
1443719875.4,286046996.3
1443719895.4,286046993.8
1443719915.3,286046997.3
1443719935.2,286046995.5
1443719955.1,286046999.1
1443719975.1,286046996.1
1443719976.0,286046996.1
1443719995.0,286047002.0
1443719995.9,286047002.0
1443720015.8,286046997.3
1443720035.8,286046996.5
1443720055.7,286046995.0
1443720075.6,286046998.5
1443720095.5,286046999.1
1443720115.5,286046997.7
1443720135.4,286046996.5
1443720155.3,286046999.4
1443720175.3,286046997.7
1443720195.2,286046998.9
1443720215.1,286046996.5
1443720235.0,286046998.5
1443720235.9,286046998.5
1443720255.9,286046999.8
1443720275.8,286046998.8
1443720295.7,286046997.8
1443720315.6,286046997.0
1443720335.6,286046997.7
1443720355.5,286046995.4
1443720375.4,286046998.4
1443720395.3,286046998.8
1443720415.3,286046999.2
1443720435.2,286046995.7
1443720455.1,286046996.8
1443720475.0,286046996.5
1443720476.0,286046996.5
1443720495.9,286047003.3
1443720515.8,286046998.7
1443720535.7,286046998.1
1443720555.7,286047002.8
1443720575.6,286046995.2
1443720595.5,286047000.8
1443720615.4,286046998.6
1443720635.4,286046996.5
1443720655.3,286046999.0
1443720675.2,286046999.0
1443720695.1,286046998.1
1443720715.1,286047002.5
1443720716.0,286047002.5
1443720735.9,286046995.6
1443720755.8,286046999.0
1443720775.7,286046996.8
1443720795.7,286046999.8
1443720815.6,286046997.5
1443720835.5,286046997.1
1443720855.4,286047001.2
1443720875.4,286046998.1
1443720895.3,286047000.9
1443720915.2,286046997.7
1443720935.2,286046998.5
1443720955.1,286047001.2
1443720956.0,286047001.2
1443720975.0,286046994.6
1443720975.9,286046994.6
1443720995.9,286047005.7
1443721015.8,286046999.6
1443721035.7,286046996.8
1443721055.6,286047000.8
1443721075.6,286046999.3
1443721095.5,286047000.9
1443721115.4,286046999.3
1443721135.3,286046998.9
1443721155.3,286046998.5
1443721175.2,286046998.5
1443721195.1,286047000.3
1443721215.0,286046999.3
1443721216.0,286046999.3
1443721235.9,286047002.8
1443721255.8,286046999.6
1443721275.7,286046999.0
1443721295.6,286046997.3
1443721315.6,286046998.4
1443721335.5,286047000.4
1443721355.4,286047002.4
1443721375.3,286046997.9
1443721395.3,286046998.8
1443721415.2,286047000.1
1443721435.1,286047002.1
1443721455.0,286046998.1
1443721456.0,286046998.1
1443721475.9,286047003.2
1443721495.8,286046998.6
1443721515.7,286047000.8
1443721535.7,286046999.3
1443721555.6,286046999.3
1443721575.5,286046996.6
1443721595.4,286047004.3
1443721615.4,286046996.5
1443721635.3,286047001.4
1443721655.2,286047000.7
1443721675.1,286047000.0
1443721695.1,286046999.4
1443721696.0,286046999.4
1443721715.0,286046998.4
1443721715.9,286046998.4
1443721735.8,286047002.6
1443721755.8,286046998.9
1443721775.7,286046998.3
1443721795.6,286047002.7
1443721815.5,286046996.9
1443721835.5,286046999.7
1443721855.4,286047000.1
1443721875.3,286047000.6
1443721895.2,286046998.1
1443721915.2,286047002.2
1443721935.1,286046998.1
1443721955.0,286047002.3
1443721955.9,286047002.3
1443721975.9,286046997.8
1443721995.8,286046998.6
1443722015.7,286047001.1
1443722035.6,286046999.5
1443722055.6,286046998.4
1443722075.5,286046999.7
1443722095.4,286047000.5
1443722115.3,286046998.6
1443722135.3,286047002.3
1443722155.2,286046999.7
1443722175.1,286047000.4
1443722195.0,286047000.4
1443722196.0,286047000.4
1443722215.9,286046998.3
1443722235.8,286046999.9
1443722255.7,286047000.7
1443722275.6,286047000.8
1443722295.6,286046998.8
1443722315.5,286047002.3
1443722335.4,286046999.3
1443722355.3,286046998.5
1443722375.3,286047000.4
1443722395.2,286047000.5
